Location: Litvinovka
(48.6667°N, 34.3500°E)
Time: 01:22:50
(UTC+00:00)

USA 234 - Pass Details

Date: 18 September 2020
Orbit: 1102 x 1106 km, 123.0° (Epoch: 16 October)

Event Time Altitude Azimuth Distance (km) Brightness Sun altitude
Rises 20:12:25 0° 62° (ENE) 3,925 6.2 -36.7°
Reaches altitude 10° 20:14:58 10° 57° (ENE) 2,966 5.6 -36.9°
Enters shadow 20:16:06 16° 54° (NE) 2,559 5.2 -37.0°
Exits shadow 20:19:21 40° 29° (NNE) 1,587 4.2 -37.2°
Maximum altitude 20:21:14 51° 345° (NNW) 1,371 3.9 -37.3°
Drops below altitude 10° 20:27:30 10° 272° (W) 2,964 5.7 -37.7°
Sets 20:30:03 0° 267° (W) 3,922 6.4 -37.9°
